Simultaneous Nadir Overpasses (SNOs) Predictions

Prediction of SNOs between AQUA and METOP-A Satellite Orbit:

Table of predicted SNOs for the next 14.0 days since TLE Epoch: 7/1/2016
Index Date (AQUA) Time (AQUA) Lat,Lon (AQUA) SZA (AQUA ) Date (METOP-A) Time (METOP-A) Lat,Lon (METOP-A) SZA (METOP-A ) Distance(km) Time Diff (sec)
1 07/03/2016 18:36:01 -73.76, 75.37 129.07 07/03/2016 18:34:48 -73.72, 74.96 129.09 13.48 73
2 07/03/2016 19:25:31 73.88,-117.26 51.06 07/03/2016 19:25:24 73.90,-117.27 51.08 2.20 7
3 07/03/2016 20:14:58 -73.96, 50.19 128.85 07/03/2016 20:16:05 -73.94, 50.16 128.88 2.61 67
4 07/06/2016 14:10:16 -73.84, 141.63 128.71 07/06/2016 14:09:06 -73.85, 141.70 128.69 2.77 70
5 07/06/2016 14:59:45 73.91, -50.89 51.37 07/06/2016 14:59:45 73.88, -50.90 51.35 3.29 0
6 07/06/2016 15:49:12 -73.99, 116.57 128.54 07/06/2016 15:50:25 -73.98, 116.67 128.56 3.01 73
7 07/09/2016 09:44:30 -73.82,-151.89 128.41 07/09/2016 09:43:28 -73.84,-151.92 128.37 2.92 62
8 07/09/2016 10:33:59 73.90, 15.57 51.69 07/09/2016 10:34:06 73.91, 15.58 51.70 1.62 7
9 07/09/2016 11:23:31 -74.23,-177.53 127.95 07/09/2016 11:24:41 -74.26,-176.22 127.98 39.78 70
10 07/12/2016 05:18:45 -73.86, -85.53 127.99 07/12/2016 05:17:50 -73.83, -85.55 128.01 3.31 55
11 07/12/2016 06:08:13 73.89, 82.03 52.06 07/12/2016 06:08:28 73.89, 81.94 52.06 2.73 15
12 07/12/2016 06:57:51 -74.52,-111.80 127.25 07/12/2016 06:58:58 -74.49,-109.22 127.39 76.46 67
13 07/15/2016 00:52:58 -73.85, -19.08 127.57 07/15/2016 00:52:10 -73.86, -19.07 127.55 1.11 48
14 07/15/2016 01:42:27 73.94, 148.35 52.54 07/15/2016 01:42:48 73.92, 148.41 52.51 3.27 21




NCC Satellite Simultaneous Nadir Overpasses (SNOs) Prediction Service
